| time (UTC) | temp C | wind direction | speed KPH | gust KPH | rain 1hr cm | rain 24hr cm | rain mn cm | humidity % | barometer mb |
| 20260503050310 | 7 | 328 | 0.0 | 1.6 | 0.00 | 2.34 | 0.00 | 93 | 1009.1 |
| 20260503045810 | 7 | 328 | 0.0 | 1.6 | 0.00 | 2.34 | 0.00 | 93 | 1009.2 |
| 20260503045310 | 7 | 328 | 0.0 | 1.6 | 0.00 | 2.34 | 0.00 | 93 | 1009.1 |
| 20260503044810 | 7 | 328 | 0.0 | 1.6 | 0.00 | 2.34 | 0.00 | 93 | 1009.2 |
| 20260503044310 | 7 | 328 | 0.0 | 1.6 | 0.00 | 2.34 | 0.00 | 93 | 1009.1 |
| 20260503043810 | 7 | 290 | 0.0 | 0.0 | 0.00 | 2.34 | 0.00 | 93 | 1009.2 |
| 20260503043310 | 7 | 290 | 0.0 | 0.0 | 0.00 | 2.34 | 0.00 | 93 | 1009.1 |
| 20260503042810 | 7 | 290 | 0.0 | 0.0 | 0.00 | 2.34 | 0.00 | 93 | 1009.1 |
| 20260503042310 | 7 | 290 | 0.0 | 0.0 | 0.00 | 2.34 | 0.00 | 93 | 1009.2 |
| 20260503041810 | 7 | 290 | 0.0 | 0.0 | 0.00 | 2.34 | 0.00 | 93 | 1009.3 |
| 20260503041310 | 8 | 290 | 0.0 | 0.0 | 0.00 | 2.34 | 0.00 | 93 | 1009.2 |
| 20260503040810 | 8 | 290 | 0.0 | 0.0 | 0.00 | 2.34 | 0.00 | 93 | 1009.3 |
| 20260503040310 | 8 | 290 | 0.0 | 0.0 | 0.00 | 2.34 | 0.00 | 93 | 1009.4 |
| 20260503035810 | 8 | 290 | 0.0 | 0.0 | 0.00 | 2.34 | 0.00 | 93 | 1009.3 |
| 20260503035310 | 8 | 290 | 0.0 | 0.0 | 0.00 | 2.34 | 0.00 | 93 | 1009.3 |
| 20260503034810 | 8 | 290 | 0.0 | 0.0 | 0.00 | 2.34 | 0.00 | 93 | 1009.4 |
| 20260503034310 | 8 | 290 | 0.0 | 0.0 | 0.00 | 2.34 | 0.00 | 93 | 1009.3 |
| 20260503033810 | 8 | 290 | 0.0 | 0.0 | 0.00 | 2.34 | 0.00 | 93 | 1009.5 |
| 20260503033310 | 8 | 290 | 0.0 | 0.0 | 0.00 | 2.34 | 0.00 | 93 | 1009.5 |
| 20260503032810 | 8 | 290 | 0.0 | 0.0 | 0.00 | 2.34 | 0.00 | 93 | 1009.5 |
| 20260503032310 | 8 | 290 | 0.0 | 0.0 | 0.00 | 2.34 | 0.00 | 93 | 1009.6 |
| 20260503031811 | 8 | 290 | 0.0 | 0.0 | 0.00 | 2.36 | 0.00 | 93 | 1009.5 |
| 20260503031310 | 8 | 290 | 0.0 | 0.0 | 0.00 | 2.36 | 0.00 | 93 | 1009.4 |
| 20260503030810 | 8 | 290 | 0.0 | 0.0 | 0.00 | 2.36 | 0.00 | 93 | 1009.5 |
| 20260503030310 | 8 | 290 | 0.0 | 0.0 | 0.00 | 2.36 | 0.00 | 93 | 1009.6 |
| 20260503025810 | 8 | 290 | 0.0 | 0.0 | 0.00 | 2.36 | 0.00 | 93 | 1009.6 |
| 20260503025310 | 8 | 290 | 0.0 | 0.0 | 0.00 | 2.36 | 0.00 | 93 | 1009.7 |
| 20260503024810 | 8 | 290 | 0.0 | 0.0 | 0.00 | 2.36 | 0.00 | 93 | 1009.7 |
| 20260503024310 | 8 | 290 | 0.0 | 0.0 | 0.00 | 2.36 | 0.00 | 93 | 1009.6 |
| 20260503023810 | 8 | 290 | 0.0 | 0.0 | 0.00 | 2.36 | 0.00 | 93 | 1009.5 |
| 20260503023310 | 8 | 290 | 0.0 | 0.0 | 0.00 | 2.36 | 0.00 | 93 | 1009.4 |
| 20260503022810 | 8 | 290 | 0.0 | 0.0 | 0.00 | 2.36 | 0.00 | 93 | 1009.4 |
| 20260503022310 | 8 | 290 | 0.0 | 0.0 | 0.00 | 2.36 | 0.00 | 93 | 1009.4 |
| 20260503021810 | 8 | 290 | 0.0 | 0.0 | 0.00 | 2.36 | 0.00 | 93 | 1009.4 |
| 20260503021310 | 8 | 290 | 0.0 | 0.0 | 0.00 | 2.36 | 0.00 | 93 | 1009.4 |
| 20260503020811 | 8 | 290 | 0.0 | 0.0 | 0.00 | 2.36 | 0.00 | 93 | 1009.5 |
| 20260503020310 | 8 | 290 | 0.0 | 0.0 | 0.00 | 2.36 | 0.00 | 93 | 1009.6 |
| 20260503015811 | 8 | 290 | 0.0 | 0.0 | 0.00 | 2.36 | 0.00 | 93 | 1009.7 |
| 20260503015310 | 8 | 290 | 0.0 | 0.0 | 0.00 | 2.36 | 0.00 | 93 | 1009.7 |
| 20260503014939 | 8 | 290 | 0.0 | 1.6 | 0.00 | 2.36 | 0.00 | 93 | 1009.8 |
| 20260503014811 | 8 | 290 | 0.0 | 1.6 | 0.00 | 2.36 | 0.00 | 93 | 1009.8 |
| 20260503014311 | 9 | 290 | 0.0 | 1.6 | 0.00 | 2.36 | 0.00 | 93 | 1009.8 |
| 20260503013811 | 9 | 293 | 0.0 | 0.0 | 0.00 | 2.36 | 0.00 | 93 | 1009.8 |
| 20260503013311 | 9 | 293 | 0.0 | 1.6 | 0.00 | 2.36 | 0.00 | 93 | 1009.9 |
| 20260503012811 | 9 | 293 | 0.0 | 1.6 | 0.00 | 2.36 | 0.00 | 93 | 1009.9 |
| 20260503012311 | 9 | 294 | 0.0 | 1.6 | 0.00 | 2.36 | 0.00 | 93 | 1009.9 |
| 20260503011811 | 9 | 283 | 0.0 | 1.6 | 0.00 | 2.36 | 0.00 | 93 | 1010.0 |
| 20260503011311 | 9 | 283 | 0.0 | 1.6 | 0.00 | 2.36 | 0.00 | 93 | 1009.9 |
| 20260503010811 | 9 | 283 | 0.0 | 1.6 | 0.00 | 2.36 | 0.00 | 93 | 1010.0 |
| 20260503010311 | 9 | 283 | 0.0 | 1.6 | 0.00 | 2.36 | 0.00 | 93 | 1010.0 |
| 20260503005811 | 9 | 290 | 0.0 | 1.6 | 0.00 | 2.36 | 0.00 | 93 | 1010.0 |
| 20260503005311 | 9 | 266 | 0.0 | 1.6 | 0.00 | 2.36 | 0.00 | 93 | 1010.1 |
| 20260503004811 | 8 | 266 | 0.0 | 1.6 | 0.00 | 2.36 | 0.00 | 93 | 1010.1 |
| 20260503004311 | 9 | 288 | 0.0 | 1.6 | 0.00 | 2.36 | 0.00 | 93 | 1010.2 |
| 20260503003811 | 9 | 333 | 0.0 | 1.6 | 0.00 | 2.36 | 0.00 | 93 | 1010.2 |
| 20260503003311 | 8 | 294 | 0.0 | 1.6 | 0.00 | 2.36 | 0.00 | 93 | 1010.1 |
| 20260503002811 | 8 | 266 | 0.0 | 0.0 | 0.00 | 2.36 | 0.00 | 93 | 1010.1 |
| 20260503002311 | 8 | 266 | 0.0 | 1.6 | 0.00 | 2.36 | 0.00 | 93 | 1010.1 |
| 20260503001811 | 8 | 352 | 0.0 | 1.6 | 0.00 | 2.36 | 0.00 | 93 | 1010.1 |
| 20260503001311 | 8 | 15 | 0.0 | 1.6 | 0.00 | 2.36 | 2.36 | 93 | 1010.0 |
| 20260503000811 | 8 | 344 | 0.0 | 3.2 | 0.00 | 2.36 | 2.36 | 93 | 1010.1 |
| 20260503000311 | 9 | 21 | 0.0 | 1.6 | 0.00 | 2.36 | 2.36 | 93 | 1010.2 |
| 20260502235811 | 9 | 344 | 0.0 | 1.6 | 0.00 | 2.36 | 2.36 | 93 | 1010.1 |
| 20260502235311 | 9 | 7 | 0.0 | 0.0 | 0.00 | 2.36 | 2.36 | 92 | 1010.2 |
| 20260502234811 | 9 | 7 | 0.0 | 1.6 | 0.00 | 2.36 | 2.36 | 92 | 1010.3 |
| 20260502234311 | 9 | 3 | 0.0 | 4.8 | 0.00 | 2.36 | 2.36 | 93 | 1010.3 |
| 20260502233811 | 9 | 309 | 0.0 | 1.6 | 0.00 | 2.36 | 2.36 | 93 | 1010.3 |
| 20260502233311 | 9 | 305 | 0.0 | 1.6 | 0.00 | 2.36 | 2.36 | 93 | 1010.3 |
| 20260502232811 | 10 | 245 | 0.0 | 1.6 | 0.00 | 2.36 | 2.36 | 93 | 1010.5 |
| 20260502232311 | 10 | 281 | 0.0 | 1.6 | 0.00 | 2.36 | 2.36 | 93 | 1010.4 |
| 20260502231811 | 10 | 264 | 0.0 | 1.6 | 0.00 | 2.36 | 2.36 | 93 | 1010.5 |
| 20260502231311 | 10 | 273 | 0.0 | 1.6 | 0.00 | 2.36 | 2.36 | 93 | 1010.5 |
| 20260502230811 | 10 | 273 | 0.0 | 1.6 | 0.00 | 2.36 | 2.36 | 92 | 1010.7 |
| 20260502230311 | 10 | 273 | 0.0 | 1.6 | 0.00 | 2.36 | 2.36 | 92 | 1010.8 |
| 20260502225811 | 10 | 267 | 0.0 | 3.2 | 0.00 | 2.36 | 2.36 | 92 | 1010.8 |
| 20260502225311 | 10 | 285 | 0.0 | 1.6 | 0.00 | 2.36 | 2.36 | 92 | 1010.7 |
| 20260502224811 | 10 | 259 | 0.0 | 1.6 | 0.00 | 2.36 | 2.36 | 92 | 1010.7 |
| 20260502224311 | 10 | 252 | 0.0 | 1.6 | 0.03 | 2.36 | 2.36 | 92 | 1010.6 |
| 20260502223811 | 10 | 302 | 0.0 | 1.6 | 0.03 | 2.36 | 2.36 | 93 | 1010.6 |
| 20260502223311 | 10 | 346 | 0.0 | 1.6 | 0.03 | 2.36 | 2.36 | 93 | 1010.7 |
| 20260502222811 | 10 | 346 | 0.0 | 0.0 | 0.03 | 2.36 | 2.36 | 93 | 1010.6 |
| 20260502222311 | 10 | 346 | 0.0 | 0.0 | 0.03 | 2.36 | 2.36 | 93 | 1010.6 |
| 20260502221811 | 10 | 346 | 0.0 | 0.0 | 0.03 | 2.36 | 2.36 | 92 | 1010.6 |
| 20260502221311 | 10 | 346 | 0.0 | 0.0 | 0.03 | 2.36 | 2.36 | 92 | 1010.6 |
| 20260502220811 | 10 | 346 | 0.0 | 0.0 | 0.03 | 2.36 | 2.36 | 92 | 1010.7 |
| 20260502220311 | 10 | 346 | 0.0 | 0.0 | 0.03 | 2.36 | 2.36 | 92 | 1010.7 |
| 20260502215811 | 10 | 346 | 0.0 | 4.8 | 0.03 | 2.36 | 2.36 | 92 | 1010.5 |
| 20260502215311 | 10 | 339 | 0.0 | 1.6 | 0.03 | 2.36 | 2.36 | 92 | 1010.7 |
| 20260502214811 | 10 | 300 | 0.0 | 1.6 | 0.03 | 2.36 | 2.36 | 92 | 1010.7 |
| 20260502214311 | 10 | 352 | 0.0 | 3.2 | 0.00 | 2.34 | 2.34 | 92 | 1010.7 |
| 20260502213811 | 10 | 359 | 0.0 | 1.6 | 0.03 | 2.34 | 2.34 | 92 | 1010.7 |
| 20260502213311 | 10 | 356 | 0.0 | 3.2 | 0.03 | 2.34 | 2.34 | 92 | 1010.9 |
| 20260502212811 | 10 | 357 | 0.0 | 3.2 | 0.03 | 2.34 | 2.34 | 92 | 1010.9 |
| 20260502212311 | 10 | 345 | 0.0 | 1.6 | 0.05 | 2.34 | 2.34 | 92 | 1010.9 |
| 20260502211811 | 10 | 302 | 0.0 | 1.6 | 0.05 | 2.34 | 2.34 | 92 | 1010.9 |
| 20260502211311 | 10 | 354 | 0.0 | 3.2 | 0.05 | 2.34 | 2.34 | 92 | 1010.9 |
| 20260502210811 | 10 | 25 | 0.0 | 3.2 | 0.05 | 2.34 | 2.34 | 92 | 1011.0 |
| 20260502210311 | 10 | 347 | 0.0 | 1.6 | 0.08 | 2.34 | 2.34 | 92 | 1010.9 |
| 20260502205811 | 10 | 346 | 0.0 | 1.6 | 0.08 | 2.34 | 2.34 | 92 | 1011.1 |
| 20260502205311 | 10 | 350 | 0.0 | 3.2 | 0.08 | 2.34 | 2.34 | 92 | 1011.0 |
| 20260502204811 | 10 | 354 | 0.0 | 1.6 | 0.10 | 2.34 | 2.34 | 92 | 1011.1 |
| 20260502204311 | 10 | 358 | 0.0 | 3.2 | 0.10 | 2.34 | 2.34 | 92 | 1011.2 |
| 20260502203811 | 10 | 8 | 0.0 | 1.6 | 0.08 | 2.31 | 2.31 | 92 | 1011.3 |
| 20260502203311 | 10 | 13 | 0.0 | 1.6 | 0.10 | 2.31 | 2.31 | 92 | 1011.2 |
| 20260502202811 | 10 | 335 | 0.0 | 1.6 | 0.10 | 2.31 | 2.31 | 92 | 1011.3 |
| 20260502202311 | 10 | 314 | 0.0 | 1.6 | 0.10 | 2.29 | 2.29 | 92 | 1011.2 |
| 20260502201811 | 10 | 13 | 0.0 | 1.6 | 0.10 | 2.29 | 2.29 | 92 | 1011.2 |
| 20260502201311 | 11 | 263 | 0.0 | 0.0 | 0.13 | 2.29 | 2.29 | 92 | 1011.2 |
| 20260502200811 | 11 | 253 | 0.0 | 3.2 | 0.15 | 2.29 | 2.29 | 92 | 1011.3 |
| 20260502200311 | 11 | 311 | 0.0 | 1.6 | 0.18 | 2.26 | 2.26 | 92 | 1011.2 |
| 20260502195811 | 11 | 8 | 0.0 | 1.6 | 0.25 | 2.26 | 2.26 | 92 | 1011.2 |
| 20260502195311 | 11 | 346 | 0.0 | 1.6 | 0.33 | 2.26 | 2.26 | 92 | 1011.2 |
| 20260502194811 | 11 | 351 | 0.0 | 1.6 | 0.41 | 2.24 | 2.24 | 92 | 1011.1 |
| 20260502194311 | 11 | 352 | 0.0 | 1.6 | 0.56 | 2.24 | 2.24 | 92 | 1011.2 |
| 20260502193812 | 11 | 349 | 0.0 | 1.6 | 0.71 | 2.24 | 2.24 | 92 | 1011.2 |
| 20260502193311 | 11 | 16 | 0.0 | 1.6 | 0.79 | 2.21 | 2.21 | 92 | 1011.2 |
| 20260502192811 | 11 | 340 | 0.0 | 0.0 | 0.84 | 2.21 | 2.21 | 92 | 1011.1 |
| 20260502192311 | 11 | 341 | 0.0 | 1.6 | 0.91 | 2.18 | 2.18 | 92 | 1011.2 |
| 20260502191811 | 11 | 355 | 0.0 | 1.6 | 0.94 | 2.18 | 2.18 | 92 | 1011.2 |
| 20260502191311 | 11 | 356 | 0.0 | 3.2 | 0.97 | 2.16 | 2.16 | 92 | 1011.2 |
| 20260502190811 | 11 | 345 | 0.0 | 1.6 | 0.99 | 2.13 | 2.13 | 92 | 1011.2 |
| 20260502190311 | 11 | 139 | 0.0 | 1.6 | 0.99 | 2.08 | 2.08 | 92 | 1011.3 |
| 20260502185811 | 11 | 139 | 0.0 | 0.0 | 0.97 | 2.01 | 2.01 | 92 | 1011.4 |
| 20260502185311 | 11 | 139 | 0.0 | 1.6 | 0.94 | 1.93 | 1.93 | 92 | 1011.4 |
| 20260502184811 | 11 | 139 | 0.0 | 0.0 | 0.86 | 1.83 | 1.83 | 92 | 1011.5 |
| 20260502184311 | 11 | 25 | 0.0 | 1.6 | 0.74 | 1.68 | 1.68 | 92 | 1011.4 |
| 20260502183811 | 11 | 357 | 0.0 | 3.2 | 0.58 | 1.52 | 1.52 | 91 | 1011.4 |
| 20260502183311 | 11 | 18 | 0.0 | 1.6 | 0.48 | 1.42 | 1.42 | 91 | 1011.4 |
| 20260502182811 | 11 | 27 | 0.0 | 1.6 | 0.46 | 1.37 | 1.37 | 91 | 1011.6 |
| 20260502182311 | 11 | 51 | 0.0 | 0.0 | 0.43 | 1.27 | 1.27 | 91 | 1011.5 |
| 20260502181811 | 11 | 51 | 0.0 | 0.0 | 0.43 | 1.24 | 1.24 | 91 | 1011.5 |
| 20260502181311 | 11 | 51 | 0.0 | 1.6 | 0.41 | 1.19 | 1.19 | 91 | 1011.6 |
| 20260502180811 | 11 | 345 | 0.0 | 3.2 | 0.36 | 1.14 | 1.14 | 91 | 1011.6 |
| 20260502180311 | 11 | 13 | 0.0 | 3.2 | 0.33 | 1.09 | 1.09 | 91 | 1011.5 |
| 20260502170312 | 12 | 357 | 0.0 | 3.2 | 0.43 | 0.76 | 0.76 | 90 | 1012.1 |
| 20260502164312 | 12 | 281 | 0.0 | 1.6 | 0.53 | 0.66 | 0.66 | 89 | 1012.4 |
| 20260502163812 | 12 | 281 | 0.0 | 0.0 | 0.53 | 0.61 | 0.61 | 89 | 1012.7 |
| 20260502163312 | 12 | 281 | 0.0 | 0.0 | 0.53 | 0.58 | 0.58 | 88 | 1012.7 |
| 20260502162812 | 12 | 238 | 0.0 | 1.6 | 0.51 | 0.53 | 0.53 | 88 | 1012.7 |
| 20260502162312 | 12 | 281 | 0.0 | 1.6 | 0.48 | 0.51 | 0.51 | 88 | 1012.9 |
| 20260502161812 | 12 | 241 | 0.0 | 1.6 | 0.43 | 0.46 | 0.46 | 87 | 1012.9 |
| 20260502161312 | 12 | 241 | 0.0 | 1.6 | 0.38 | 0.41 | 0.41 | 86 | 1012.9 |
| 20260502160812 | 13 | 241 | 0.0 | 1.6 | 0.33 | 0.36 | 0.36 | 86 | 1013.0 |
| 20260502160312 | 13 | 241 | 0.0 | 1.6 | 0.30 | 0.33 | 0.33 | 85 | 1013.0 |
| 20260502152312 | 15 | 288 | 0.0 | 0.0 | 0.00 | 0.03 | 0.03 | 76 | 1012.8 |
| 20260502151812 | 15 | 288 | 0.0 | 0.0 | 0.00 | 0.03 | 0.03 | 74 | 1012.9 |
| 20260502151312 | 15 | 288 | 0.0 | 1.6 | 0.00 | 0.03 | 0.03 | 73 | 1012.8 |
| 20260502150812 | 16 | 86 | 0.0 | 0.0 | 0.00 | 0.03 | 0.03 | 74 | 1012.8 |
| 20260502150312 | 16 | 86 | 0.0 | 1.6 | 0.00 | 0.03 | 0.03 | 73 | 1013.0 |
| 20260502130312 | 16 | 105 | 1.6 | 8.0 | 0.00 | 0.13 | 0.03 | 70 | 1014.9 |
| 20260502123812 | 17 | 251 | 1.6 | 8.0 | 0.00 | 0.13 | 0.03 | 68 | 1015.2 |
| 20260502123312 | 16 | 182 | 1.6 | 9.7 | 0.00 | 0.13 | 0.03 | 69 | 1015.2 |
| 20260502122812 | 17 | 260 | 1.6 | 4.8 | 0.00 | 0.13 | 0.03 | 67 | 1015.2 |
| 20260502122312 | 16 | 134 | 1.6 | 8.0 | 0.00 | 0.13 | 0.03 | 65 | 1015.4 |
| 20260502121812 | 16 | 147 | 1.6 | 8.0 | 0.00 | 0.13 | 0.03 | 67 | 1015.6 |
| 20260502121312 | 16 | 155 | 1.6 | 8.0 | 0.00 | 0.13 | 0.03 | 65 | 1015.5 |
| 20260502120812 | 16 | 142 | 1.6 | 9.7 | 0.00 | 0.13 | 0.03 | 66 | 1015.8 |
| 20260502120312 | 16 | 267 | 1.6 | 8.0 | 0.00 | 0.13 | 0.03 | 69 | 1015.7 |
| 20260502115812 | 16 | 169 | 1.6 | 3.2 | 0.00 | 0.13 | 0.03 | 72 | 1015.8 |
| 20260502115312 | 16 | 264 | 1.6 | 6.4 | 0.00 | 0.13 | 0.03 | 68 | 1016.0 |
| 20260502114812 | 16 | 211 | 1.6 | 8.0 | 0.00 | 0.13 | 0.03 | 69 | 1016.1 |
| 20260502114312 | 16 | 127 | 1.6 | 8.0 | 0.00 | 0.13 | 0.03 | 67 | 1016.0 |
| 20260502113812 | 16 | 112 | 3.2 | 8.0 | 0.00 | 0.13 | 0.03 | 67 | 1016.1 |
| 20260502113312 | 16 | 124 | 1.6 | 11.3 | 0.00 | 0.13 | 0.03 | 68 | 1016.2 |
| 20260502112812 | 15 | 228 | 1.6 | 6.4 | 0.00 | 0.13 | 0.03 | 71 | 1016.3 |
| 20260502112312 | 15 | 130 | 1.6 | 4.8 | 0.00 | 0.13 | 0.03 | 69 | 1016.4 |
| 20260502111812 | 15 | 136 | 3.2 | 6.4 | 0.00 | 0.13 | 0.03 | 70 | 1016.4 |
| 20260502111312 | 15 | 271 | 1.6 | 8.0 | 0.00 | 0.13 | 0.03 | 68 | 1016.4 |
| 20260502110812 | 15 | 243 | 1.6 | 3.2 | 0.00 | 0.13 | 0.03 | 71 | 1016.5 |
| 20260502110312 | 15 | 244 | 4.8 | 9.7 | 0.00 | 0.13 | 0.03 | 75 | 1016.6 |
| 20260502105812 | 15 | 231 | 6.4 | 12.9 | 0.00 | 0.13 | 0.03 | 72 | 1016.7 |
| 20260502105312 | 15 | 255 | 6.4 | 17.7 | 0.00 | 0.13 | 0.03 | 72 | 1016.9 |
| 20260502104812 | 15 | 266 | 6.4 | 12.9 | 0.00 | 0.13 | 0.03 | 73 | 1016.9 |
| 20260502104312 | 15 | 135 | 6.4 | 16.1 | 0.00 | 0.13 | 0.03 | 75 | 1016.9 |
| 20260502103812 | 15 | 145 | 4.8 | 11.3 | 0.00 | 0.13 | 0.03 | 71 | 1016.9 |
| 20260502103312 | 15 | 198 | 3.2 | 12.9 | 0.00 | 0.13 | 0.03 | 77 | 1016.8 |
| 20260502102812 | 15 | 154 | 3.2 | 12.9 | 0.00 | 0.13 | 0.03 | 76 | 1016.6 |
| 20260502102312 | 14 | 151 | 3.2 | 8.0 | 0.00 | 0.13 | 0.03 | 76 | 1016.8 |
| 20260502101812 | 14 | 128 | 4.8 | 9.7 | 0.00 | 0.13 | 0.03 | 77 | 1016.9 |
| 20260502101312 | 14 | 243 | 4.8 | 11.3 | 0.00 | 0.13 | 0.03 | 77 | 1017.1 |
| 20260502100812 | 15 | 134 | 3.2 | 11.3 | 0.00 | 0.13 | 0.03 | 77 | 1017.1 |
| 20260502100312 | 14 | 129 | 3.2 | 9.7 | 0.00 | 0.13 | 0.03 | 78 | 1017.0 |
| 20260502091312 | 13 | 256 | 1.6 | 3.2 | 0.00 | 0.13 | 0.03 | 81 | 1017.0 |
| 20260502090812 | 13 | 94 | 1.6 | 8.0 | 0.00 | 0.13 | 0.03 | 81 | 1016.9 |
| 20260502090312 | 13 | 276 | 0.0 | 4.8 | 0.00 | 0.13 | 0.03 | 81 | 1017.0 |
| 20260502071313 | 10 | 154 | 0.0 | 3.2 | 0.00 | 0.13 | 0.03 | 91 | 1017.7 |
| 20260502070813 | 10 | 139 | 0.0 | 1.6 | 0.00 | 0.13 | 0.03 | 91 | 1017.7 |
| 20260502070313 | 10 | 235 | 0.0 | 0.0 | 0.00 | 0.13 | 0.03 | 91 | 1017.7 |
| 20260502065813 | 9 | 238 | 0.0 | 0.0 | 0.00 | 0.13 | 0.03 | 92 | 1017.7 |
| 20260502065313 | 9 | 238 | 0.0 | 0.0 | 0.00 | 0.13 | 0.03 | 92 | 1017.6 |
| 20260502064813 | 8 | 238 | 0.0 | 1.6 | 0.00 | 0.13 | 0.03 | 92 | 1017.7 |
| 20260502064313 | 8 | 224 | 0.0 | 0.0 | 0.00 | 0.13 | 0.03 | 92 | 1017.6 |
| 20260502063813 | 8 | 224 | 0.0 | 1.6 | 0.00 | 0.13 | 0.03 | 92 | 1017.8 |
| 20260502063313 | 8 | 224 | 0.0 | 0.0 | 0.00 | 0.13 | 0.03 | 92 | 1017.7 |
| 20260502062813 | 8 | 224 | 0.0 | 0.0 | 0.00 | 0.13 | 0.03 | 92 | 1017.8 |
| 20260502062313 | 7 | 224 | 0.0 | 1.6 | 0.00 | 0.13 | 0.03 | 92 | 1018.0 |
| 20260502061813 | 7 | 224 | 0.0 | 0.0 | 0.00 | 0.13 | 0.03 | 92 | 1018.0 |
| 20260502061313 | 7 | 224 | 0.0 | 0.0 | 0.00 | 0.13 | 0.03 | 92 | 1018.1 |
| 20260502060813 | 7 | 224 | 0.0 | 0.0 | 0.00 | 0.13 | 0.03 | 92 | 1018.1 |
| 20260502060313 | 7 | 224 | 0.0 | 0.0 | 0.00 | 0.13 | 0.03 | 92 | 1018.0 |
| 20260502055813 | 6 | 224 | 0.0 | 0.0 | 0.00 | 0.13 | 0.03 | 92 | 1018.0 |
| 20260502055313 | 6 | 224 | 0.0 | 1.6 | 0.00 | 0.13 | 0.03 | 92 | 1017.9 |
| 20260502054813 | 6 | 224 | 0.0 | 0.0 | 0.00 | 0.13 | 0.03 | 92 | 1017.9 |
| 20260502054313 | 6 | 224 | 0.0 | 0.0 | 0.00 | 0.13 | 0.03 | 92 | 1017.9 |
| 20260502053813 | 6 | 224 | 0.0 | 0.0 | 0.00 | 0.13 | 0.03 | 92 | 1017.9 |
| 20260502053313 | 6 | 224 | 0.0 | 0.0 | 0.00 | 0.13 | 0.03 | 92 | 1017.9 |
| 20260502052813 | 6 | 224 | 0.0 | 0.0 | 0.00 | 0.13 | 0.03 | 92 | 1017.9 |
| 20260502052313 | 6 | 224 | 0.0 | 0.0 | 0.00 | 0.13 | 0.03 | 91 | 1017.9 |
| 20260502051813 | 6 | 224 | 0.0 | 0.0 | 0.00 | 0.13 | 0.03 | 91 | 1018.0 |
| 20260502051313 | 6 | 224 | 0.0 | 0.0 | 0.00 | 0.13 | 0.03 | 91 | 1017.9 |
| 20260502050813 | 6 | 224 | 0.0 | 0.0 | 0.00 | 0.13 | 0.03 | 91 | 1017.7 |